Simultaneous Nadir Overpasses (SNOs) Predictions

Prediction of SNOs between GOES-17 and LANDSAT-8 Satellite Orbit:

Table of predicted SNOs for the next 14.0 days since TLE Epoch: 12/2/2023
Index Date Time (GOES-17) GOES-17 Lat,Lon LANDSAT-8 Lat,Lon Distance(km) Time Diff (sec)
1 12/03/2023 17:00:39 0.02,-104.66 -0.60,-101.79 326.77 80
2 12/04/2023 05:22:02 -0.02,-104.65 -0.54,-106.97 264.79 80
3 12/06/2023 05:07:08 -0.03,-104.65 0.10,-104.01 72.75 80
4 12/08/2023 04:54:53 -0.03,-104.65 0.72,-101.03 410.53 80
5 12/08/2023 17:16:08 0.03,-104.66 0.35,-106.19 174.12 80
6 12/10/2023 17:06:33 0.02,-104.66 -0.31,-103.22 163.66 80
7 12/11/2023 05:27:55 -0.02,-104.65 -0.80,-108.41 427.26 80
8 12/13/2023 05:15:39 -0.01,-104.64 -0.16,-105.44 89.93 80
9 12/15/2023 05:00:43 -0.03,-104.63 0.45,-102.45 247.70 80
10 12/15/2023 17:21:56 0.03,-104.63 0.66,-107.60 337.81 80
